Hourly Weather Suhorozhnya

Today, 25 January, Monday

Time Temperature Precipitation Wind Pressure Humidity
00:00 -1°C° 0.1 mm 5 mps 744 mmHg 99%
01:00 -1°C° 0.1 mm 5 mps 744 mmHg 95%
02:00 -2°C° 0.1 mm 6 mps 744 mmHg 92%
03:00 -2°C° 0.1 mm 6 mps 744 mmHg 88%
04:00 -3°C° 0 mm 6 mps 744 mmHg 90%
05:00 -3°C° 0 mm 7 mps 744 mmHg 91%
06:00 -4°C° 0 mm 7 mps 744 mmHg 92%
07:00 -4°C° 0 mm 7 mps 744 mmHg 92%
08:00 -4°C° 0 mm 7 mps 744 mmHg 92%
09:00 -3°C° 0 mm 7 mps 744 mmHg 92%
10:00 -4°C° 0.3 mm 6 mps 743 mmHg 94%
11:00 -4°C° 0.3 mm 6 mps 743 mmHg 95%
12:00 -4°C° 0.3 mm 6 mps 743 mmHg 96%
13:00 -3°C° 0.2 mm 6 mps 743 mmHg 96%
14:00 -3°C° 0.2 mm 6 mps 743 mmHg 96%
15:00 -2°C° 0.2 mm 5 mps 743 mmHg 95%
16:00 -2°C° 0 mm 5 mps 743 mmHg 96%
17:00 -2°C° 0 mm 5 mps 743 mmHg 96%
18:00 -2°C° 0 mm 5 mps 743 mmHg 96%
19:00 -2°C° 0 mm 5 mps 743 mmHg 96%
20:00 -2°C° 0 mm 5 mps 743 mmHg 96%
21:00 -2°C° 0 mm 5 mps 743 mmHg 96%
22:00 -2°C° 0 mm 5 mps 743 mmHg 96%
23:00 -2°C° 0 mm 5 mps 743 mmHg 96%

Tomorrow, 26 January, Tuesday

Time Temperature Precipitation Wind Pressure Humidity
00:00 -2°C° 0 mm 5 mps 743 mmHg 96%
01:00 -2°C° 0 mm 5 mps 743 mmHg 96%
02:00 -3°C° 0 mm 6 mps 743 mmHg 96%
03:00 -3°C° 0 mm 6 mps 742 mmHg 97%
04:00 -3°C° 0 mm 6 mps 742 mmHg 97%
05:00 -3°C° 0 mm 7 mps 742 mmHg 97%
06:00 -3°C° 0 mm 7 mps 741 mmHg 97%
07:00 -3°C° 0 mm 7 mps 741 mmHg 96%
08:00 -4°C° 0 mm 8 mps 740 mmHg 95%
09:00 -5°C° 0 mm 8 mps 740 mmHg 94%
10:00 -4°C° 0.1 mm 8 mps 740 mmHg 94%
11:00 -4°C° 0.1 mm 8 mps 740 mmHg 93%
12:00 -2°C° 0.1 mm 8 mps 739 mmHg 93%
13:00 -2°C° 0 mm 8 mps 739 mmHg 94%
14:00 -2°C° 0 mm 8 mps 738 mmHg 94%
15:00 -2°C° 0 mm 8 mps 738 mmHg 94%
16:00 -4°C° 0.3 mm 8 mps 737 mmHg 95%
17:00 -4°C° 0.3 mm 8 mps 736 mmHg 96%
18:00 -4°C° 0.3 mm 8 mps 736 mmHg 97%
19:00 -2°C° 1.2 mm 8 mps 735 mmHg 98%
20:00 -3°C° 1.2 mm 9 mps 735 mmHg 98%
21:00 -3°C° 1.2 mm 9 mps 734 mmHg 99%
22:00 -3°C° 0.2 mm 9 mps 734 mmHg 93%
23:00 -2°C° 0.2 mm 8 mps 735 mmHg 88%

Day after tomorrow, 27 January, Wednesday

Time Temperature Precipitation Wind Pressure Humidity
00:00 -2°C° 0.2 mm 8 mps 735 mmHg 83%
01:00 -4°C° 0 mm 8 mps 735 mmHg 83%
02:00 -5°C° 0 mm 8 mps 735 mmHg 84%
03:00 -6°C° 0 mm 8 mps 735 mmHg 84%
04:00 -6°C° 0 mm 9 mps 736 mmHg 85%
05:00 -6°C° 0 mm 9 mps 736 mmHg 86%
06:00 -6°C° 0 mm 9 mps 736 mmHg 87%
07:00 -6°C° 0 mm 9 mps 736 mmHg 87%
08:00 -6°C° 0 mm 9 mps 736 mmHg 87%
09:00 -6°C° 0 mm 9 mps 736 mmHg 87%
10:00 -6°C° 0 mm 9 mps 737 mmHg 86%
11:00 -5°C° 0 mm 9 mps 737 mmHg 85%
12:00 -5°C° 0 mm 9 mps 737 mmHg 84%
13:00 -5°C° 0 mm 9 mps 737 mmHg 84%
14:00 -5°C° 0 mm 9 mps 737 mmHg 83%
15:00 -5°C° 0 mm 8 mps 738 mmHg 83%
16:00 -5°C° 0 mm 8 mps 738 mmHg 83%
17:00 -6°C° 0 mm 7 mps 738 mmHg 84%
18:00 -6°C° 0 mm 7 mps 738 mmHg 84%
19:00 -6°C° 0 mm 7 mps 738 mmHg 85%
20:00 -6°C° 0 mm 6 mps 739 mmHg 85%
21:00 -6°C° 0 mm 6 mps 739 mmHg 86%
22:00 -6°C° 0 mm 6 mps 739 mmHg 87%
23:00 -6°C° 0 mm 5 mps 739 mmHg 88%

28 January, Thursday

Time Temperature Precipitation Wind Pressure Humidity
00:00 -6°C° 0 mm 5 mps 739 mmHg 89%
01:00 -7°C° 0 mm 5 mps 739 mmHg 91%
02:00 -7°C° 0 mm 4 mps 739 mmHg 92%
03:00 -7°C° 0 mm 4 mps 739 mmHg 93%
04:00 -7°C° 0 mm 4 mps 739 mmHg 93%
05:00 -7°C° 0 mm 3 mps 739 mmHg 94%
06:00 -7°C° 0 mm 3 mps 739 mmHg 94%
07:00 -7°C° 0 mm 3 mps 739 mmHg 94%
08:00 -7°C° 0 mm 3 mps 739 mmHg 94%
09:00 -7°C° 0 mm 3 mps 739 mmHg 94%
10:00 -6°C° 0 mm 2 mps 739 mmHg 94%
11:00 -5°C° 0 mm 2 mps 739 mmHg 94%
12:00 -5°C° 0 mm 2 mps 739 mmHg 94%
13:00 -5°C° 0 mm 2 mps 738 mmHg 94%
14:00 -3°C° 0 mm 1 mps 738 mmHg 94%
15:00 -3°C° 0 mm 1 mps 738 mmHg 94%
16:00 -3°C° 0 mm 1 mps 738 mmHg 94%
17:00 -4°C° 0 mm 1 mps 738 mmHg 94%
18:00 -5°C° 0 mm 0 mps 738 mmHg 94%
19:00 -4°C° 0 mm 1 mps 738 mmHg 94%
20:00 -4°C° 0 mm 1 mps 738 mmHg 94%
21:00 -4°C° 0 mm 1 mps 738 mmHg 94%

29 January, Friday

Time Temperature Precipitation Wind Pressure Humidity

30 January, Saturday

Time Temperature Precipitation Wind Pressure Humidity
Show more